Location: Oklahoma City
(35.4680°N, 97.5160°W)
Time: 14:34:25
(UTC-05:00)

ISS - All Passes

Search period start: 29 March 2015 00:00
Search period end: 08 April 2015 00:00
Orbit: 396 x 406 km, 51.6° (Epoch: 29 March)

Date Brightness Start Highest point End Pass type
(mag) Time Alt. Az. Time Alt. Az. Time Alt. Az.
29 Mar - 00:32:11 10° W 00:34:51 23° NNW 00:37:30 10° NNE night (unlit)
29 Mar - 05:26:03 10° N 05:27:51 14° NNE 05:29:42 10° ENE visible
29 Mar - 07:01:22 10° NW 07:04:35 71° SW 07:07:47 10° SE daylight
29 Mar - 22:03:19 10° SSE 22:05:10 15° SE 22:07:08 10° E night (unlit)
29 Mar - 23:38:13 10° WSW 23:41:21 42° NW 23:44:27 10° NE night (unlit)
30 Mar - 06:08:02 10° NW 06:11:12 50° NE 06:14:20 10° ESE visible
30 Mar - 07:46:00 10° WSW 07:47:18 12° SW 07:48:29 10° SSW daylight
30 Mar - 22:44:39 10° SW 22:47:54 88° SE 22:51:10 10° NE night (unlit)
31 Mar - 00:23:08 10° NW 00:24:44 13° NNW 00:26:16 10° N night (unlit)
31 Mar - 05:14:54 10° NNW 05:17:41 26° NE 05:20:27 10° E visible
31 Mar - 06:51:18 10° WNW 06:54:02 25° SW 06:56:43 10° S visible
31 Mar - 21:51:30 10° SSW 21:54:32 37° SE 21:57:35 10° ENE night (unlit)
31 Mar - 23:28:30 10° W 23:31:02 20° NNW 23:33:32 10° NNE night (unlit)
01 Apr - 04:21:59 10° N 04:24:01 16° NNE 04:26:06 10° ENE visible
01 Apr - 05:57:30 10° NW 06:00:41 58° SW 06:03:51 10° SE visible
01 Apr - 20:59:00 10° S 21:01:12 17° SE 21:03:28 10° E visible
01 Apr - 22:34:22 10° WSW 22:37:25 36° NW 22:40:28 10° NNE night (unlit)
02 Apr - 03:29:50 10° NNE 03:30:15 10° NNE 03:30:44 10° NNE night (unlit)
02 Apr - 05:04:02 10° NW 05:07:14 60° NE 05:10:25 10° ESE visible
02 Apr - 21:40:37 10° SW 21:43:52 78° NW 21:47:08 10° NE visible
02 Apr - 23:19:29 10° NW 23:20:46 12° NNW 23:21:59 10° N night (unlit)
03 Apr - 04:10:46 10° NNW 04:13:39 29° NE 04:16:33 10° E night (unlit)
03 Apr - 05:47:24 10° WNW 05:49:57 21° SW 05:52:26 10° S visible
03 Apr - 20:47:17 10° SSW 20:50:24 44° SE 20:53:32 10° ENE visible
03 Apr - 22:24:35 10° WNW 22:26:58 18° NNW 22:29:19 10° NNE visible
04 Apr - 03:17:42 10° NNW 03:19:57 17° NNE 03:22:13 10° ENE night (unlit)
04 Apr - 04:53:24 10° WNW 04:56:32 47° SW 04:59:38 10° SSE night (unlit)
04 Apr - 19:54:31 10° S 19:56:58 20° SE 19:59:29 10° E daylight
04 Apr - 21:30:17 10° W 21:33:15 31° NW 21:36:12 10° NNE visible
05 Apr - 02:25:06 10° N 02:26:07 11° NNE 02:27:12 10° NE night (unlit)
05 Apr - 03:59:48 10° NW 04:03:02 72° NE 04:06:14 10° SE night (unlit)
05 Apr - 20:36:22 10° SW 20:39:35 65° NW 20:42:51 10° NE visible
05 Apr - 22:15:40 10° NW 22:16:33 11° NNW 22:17:21 10° N visible
06 Apr - 03:06:24 10° NNW 03:09:23 33° NE 03:12:22 10° ESE night (unlit)
06 Apr - 04:43:17 10° W 04:45:37 18° SW 04:47:53 10° S night (unlit)
06 Apr - 19:42:51 10° SSW 19:46:01 53° SE 19:49:13 10° ENE daylight
06 Apr - 21:20:27 10° WNW 21:22:40 17° NNW 21:24:49 10° NNE visible
07 Apr - 02:13:13 10° NNW 02:15:37 19° NNE 02:18:03 10° E night (unlit)
07 Apr - 03:49:05 10° WNW 03:52:08 40° SW 03:55:10 10° SSE night (unlit)
07 Apr - 18:49:51 10° S 18:52:31 24° SE 18:55:13 10° ENE daylight
07 Apr - 20:25:57 10° W 20:28:49 28° NW 20:31:41 10° NNE visible
